Location: Whispering Pines Observatory
(39.4020°N, 104.7430°W)
Time: 05:43:42
(UTC-06:00)

MOS 1 Rocket - Visible Passes

Search period start: 25 March 2017 00:00
Search period end: 04 April 2017 00:00
Orbit: 615 x 831 km, 97.4° (Epoch: 23 March)

Date Brightness Start Highest point End Pass type
(mag) Time Alt. Az. Time Alt. Az. Time Alt. Az.
25 Mar 3.8 04:19:10 10° NNE 04:23:04 56° NE 04:23:04 56° NE visible
25 Mar 5.1 05:59:40 10° NW 06:01:24 12° WNW 06:02:24 11° WNW visible
26 Mar 5.6 03:31:08 10° NE 03:33:36 19° ENE 03:33:36 19° ENE visible
26 Mar 3.9 05:08:41 10° N 05:12:54 35° WNW 05:12:54 35° WNW visible
27 Mar 3.6 04:19:25 10° NNE 04:23:26 60° NE 04:23:26 60° NE visible
27 Mar 5.2 06:00:07 10° NW 06:01:36 11° WNW 06:02:45 10° WNW visible
28 Mar 5.5 03:31:21 10° NE 03:33:57 19° ENE 03:33:57 19° ENE visible
28 Mar 3.9 05:08:58 10° N 05:13:07 34° WNW 05:13:17 34° WNW visible
29 Mar 3.4 04:19:39 10° NNE 04:23:48 65° ENE 04:23:48 65° ENE visible
29 Mar 5.2 06:00:36 10° NW 06:01:46 11° WNW 06:02:56 10° WNW visible
30 Mar 5.5 03:31:33 10° NE 03:34:19 20° E 03:34:19 20° E visible
30 Mar 3.9 05:09:14 10° N 05:13:18 33° WNW 05:13:38 32° W visible
31 Mar 3.3 04:19:53 10° NNE 04:24:09 70° ENE 04:24:09 70° ENE visible
31 Mar 5.2 06:01:10 10° NW 06:01:57 10° WNW 06:02:44 10° WNW visible
01 Apr 5.4 03:31:45 10° NE 03:34:40 20° E 03:34:40 20° E visible
01 Apr 3.9 05:09:28 10° N 05:13:28 32° WNW 05:13:59 31° W visible
02 Apr 3.2 04:20:06 10° NNE 04:24:31 74° E 04:24:31 74° E visible
03 Apr 5.3 03:31:57 10° NE 03:35:01 21° E 03:35:01 21° E visible
03 Apr 3.9 05:09:43 10° N 05:13:38 31° WNW 05:14:21 29° W visible
